Find Lichuanhong

NORAD ID: 69542 Int'l Des: NNA 2026-134 Owner: CGSTL/LICH Country: CN operational
LEOCIRCULARRETROGRADESSO

現在のビュー

3D地球を読み込み中...

About Lichuanhong

Lichuanhong (NORAD 69542) is a satellite launched Jun 15, 2026 by CGSTL/LICH of CN. It operates in LEO, CIRCULAR, RETROGRADE, SSO orbit with a mass of 50.00 kg.

次回通過

Passes for default location (London). Set your location on the main map for personalized predictions.

高度履歴

Loading altitude history...

軌道要素

1 69542U 26134E 26166.46458881 .00001398 00000-0 91299-4 0 9992
2 69542 97.7040 236.5599 0014779 282.3968 77.5607 15.09464710 43
Epoch: Jun 15, 2026 • Age: 31 hours

現在のステータス

高度 552.7 km
速度 7.59 km/s
衛星直下点 44.54°N, 109.2°W
打ち上げ日 Jun 15, 2026
運用期間 1 day
タイプ other

技術仕様

分類 Payload
質量 50.00 kg
乾燥質量 50.00 kg
総質量 50.00 kg
長さ 1.50 m
直径 1.00 m
スパン 1.50 m
形状 Box
製造者 CGSTL/LIRUI
バスタイプ JL-1GF07
フェーズステータス In Orbit
所有者/国 CGSTL/LICH/CN

Most Searched